Showing default

GEESAT 1-02, 52786

Orbit data source: Space-Track

GEESAT 1-02, 52786 is a payload satellite owned by GeeSpace (CN) in LEO that was launched on Thu, 02 Jun 2022 UTC via a CHANG ZHENG 2C launch vehicle from the Xichang Space Center, China (XSC). Payload-class satellites include a variety of spacecraft equipped with specific instruments for various scientific and technological missions. These include communications satellites like Starlink; space stations such as the ISS; scientific satellites like the Hubble; Earth observation satellites from companies like Planet Labs, Umbra, and HawkEye 360; GPS; miniature CubeSats for education and research; and military/defense satellites.

Loading next visibility...
Identifier
52786, 2022-058B
Orbit
LEO
Country
Flag of CNCN / PRC
Related business
Manufacturer
GWCG
Mission
Operational Commercial Navigation
Bus & Motor
GPS100, Unknown motor
Mass
130 kg wet, 130 kg dry
Launch date (UTC)
2022-06-02 (4 years ago)
Launch vehicle
CHANG ZHENG 2C
Launch site
Xichang Space Center, China (XSC)
Object type
Payload
Rocket body
Debris
Shape & HBR
Box + 2 Pan, 1.0 m
Radar Cross Section
0.833 m², Medium (>0.1 m² and < 1m²)

Expand to show TLE details & history
Last TLE update: 15 hours ago

TLE from 15 hours ago
0 GEESAT 1-02
1 52786U 22058B   25348.99973456  .00005824  00000-0  51711-3 0  9996
2 52786  50.0003 337.8398 0004095  42.9691 317.1573 14.97345437192565
Epoch: 2025-12-14T23:59Z
TLE epoch observation values (Epoch: 2025-12-14T23:59:37.065Z)
Latitude
Longitude
-105.96923°
Altitude
573.563 km
Speed
7.577 km/s
True Right ascension
22h 31m 21s
True Declination
0° 00' 00"
Sunlit
Object was in daylight at epoch
Visualization orbit readout
Latitude
Unknown
Longitude
Unknown
Altitude
Unknown
Speed
Unknown
Apparent Right ascension
Unknown
Apparent Declination
Unknown
Sunlit
N/A
Visualization observer readout
Local Sidereal Time
13:22:45
Azimuth
Unknown
Elevation
Unknown
Doppler factor
Unknown
Orbital elements
Apogee altitude
578.713 km
Perigee altitude
573.017 km
Semi-major axis
6,954.002 km
Eccentricity
0.00041
Inclination
50.0003°
RAAN
337.8398°
Arg. of periapsis
42.9691°
True anomaly
317.12538°
Mean anomaly
317.1573°
Eccentric anomaly
317.14134°
Mean motion
3.74275 °/min
Orbital period
96.19 mins
BSTAR
0.00051711
Loading maneuver chart data...
Computing Atmospheric mass density...
Loading historical data...
Loading historical data...
Loading historical data...
Loading historical data...
Loading historical data...
Loading historical data...
Loading historical data...

Documentation

Showing up to 5 results
|